Regional Weather Roundup
Issued by NWS Mobile, AL

Home | Current Version | Previous Version | Text Only | Print | Product List | Glossary On
Versions: 1 2 3 4 5 6 7 8 9 10 11 12 13 14 15 16 17 18 19 20 21 22 23 24 25 26 27 28 29 30 31 32 33 34 35 36 37 38 39 40 41 42 43 44 45 46 47 48 49 50
000
ASUS44 KMOB 270417
RWRMOB
REGIONAL WEATHER ROUNDUP
NATIONAL WEATHER SERVICE MOBILE AL
1100 PM CDT TUE MAY 26 2015

ALZ061>064-270500-
COASTAL ALABAMA


CITY           SKY/WX    TMP DP  RH WIND       PRES   REMARKS
MOBILE REG APT CLOUDY    75  73  93 E6        30.14S
BROOKLEY FIELD CLOUDY    77  74  90 E10       30.15R
GULF SHORES    CLOUDY    76  75  97 E5        30.14S

$$

ALZ051>060-270500-
INTERIOR SOUTHWEST AND SOUTH CENTRAL ALABAMA


CITY           SKY/WX    TMP DP  RH WIND       PRES   REMARKS
ANDALUSIA/OPP  MOCLDY    71  67  87 SE3       30.17F
EVERGREEN      CLOUDY    70  69  97 SE5       30.17S
FLORALA        CLOUDY    68  66  93 CALM      30.19F
GREENVILLE     NOT AVBL

$$

FLZ001>006-270500-
WESTERN FLORIDA PANHANDLE


CITY           SKY/WX    TMP DP  RH WIND       PRES   REMARKS
CRESTVIEW      CLOUDY    69  68  96 CALM      30.19R
DESTIN         CLOUDY    74  68  81 E9        30.16S
DUKE FIELD     MOCLDY    69  67  92 CALM      30.16R
MARY ESTHER    CLOUDY    74  68  81 E5        30.14S
MILTON         CLOUDY    72  69  90 E5        30.16S
PENSACOLA      MOCLDY    73  71  93 E9        30.15S
NAS PENSACOLA  CLOUDY    78  75  90 E10G22    30.14S
VALPARAISO     MOCLDY    74  69  85 E5        30.16R

$$

...MARINE OBSERVATIONS...

STATION/POSITION TIME  SKY/WX   TEMP    WIND        PRES    VSBY
                                AIR SEA DIR/SP/G
                 (UTC)          (F)     (DEG/KT/KT) (MB)    (MI)
PASCAGOULA       0300            79     150/  6/  7 1019.8R
PETIT BOIS ISL   0300            80     150/  8/ 10 1020.3R
E DAUPHIN ISLAND 0400            79     120/  9/ 10 1019.9R
MIDDLE BAY LIGHT 0300            77     110/ 11     1019.0F
USCG MOBILE BAY  0300            78 79  130/  5/  8 1019.4R
STATE DOCKS      0300            77 79              1020.3R
MEAHER PARK      0400            76     100/  5     1020.0S
FORT MORGAN      0300            79     140/ 10/ 11 1019.7R
12 S ORANGE BCH  0350            80 80   90/ 10/ 10 1019.7R
WVE H/P(F/S)=  3/ 7

PENSACOLA BAY    0300            77 81   90/  2/  6 1021.1R
64 S DAUPHIN ISL 0350            79 80  150/  6/  6 1020.1R
WVE H/P(F/S)=  4/ 7

67 S FORT MORGAN 0330            78     160/  8     1019.6R
115 SE PENSACOLA 0350            80 81  110/ 14/ 16 1019.9F
WVE H/P(F/S)=  4/ 7

MID GULF/42001   0350            82 82   90/ 14/ 16 1018.4R
WVE H/P(F/S)=  4/ 7

EAST GULF/42003  0350            81 82   90/ 10/ 12 1019.3F
WVE H/P(F/S)=  3/ 6


$$

...NEARBY LOCATIONS

CITY           SKY/WX    TMP DP  RH WIND       PRES   REMARKS
GULFPORT       MOCLDY    77  73  87 CALM      30.11S
BILOXI         CLOUDY    79  76  89 SE5       30.11S
PASCAGOULA     CLOUDY    73  72  96 CALM      30.12S FOG
HATTIESBURG    PTCLDY    73  71  93 S3        30.14R
LAUREL         PTCLDY    70 N/A N/A CALM      30.15R
MERIDIAN       MOCLDY    69  67  93 CALM      30.15R
MERIDIAN NAS   CLOUDY    72  68  87 CALM      30.15R
MONTGOMERY     PTCLDY    68  65  90 CALM      30.18S
MAXWELL AFB    PTCLDY    67  67  97 E2        30.17S
TROY           PTCLDY    67  65  93 CALM      30.18F FOG
FORT RUCKER    MOCLDY    68  66  93 CALM      30.17F
DALEVILLE      MOCLDY    68  67  96 E2        30.17F
DOTHAN         MOCLDY    67  66  97 SE3       30.22S

$$

...OTHER SURROUNDING LOCATIONS...

CITY           SKY/WX    TMP DP  RH WIND       PRES   REMARKS
BIRMINGHAM     MOCLDY    70  67  90 S8        30.20S
TUSCALOOSA     CLOUDY    73  69  87 SE7       30.16R
COLUMBUS GA    MOCLDY    68  66  94 CALM      30.20F
PANAMA CITY    NOT AVBL
TALLAHASSEE    PTCLDY    71  68  90 E7        30.20R
BATON ROUGE    PTCLDY    73  70  90 CALM      30.09S
NEW ORLEANS    PTCLDY    78  71  79 SE3       30.10F
SLIDELL        CLEAR     74  73  97 CALM      30.10F
JACKSON        PTCLDY    72  67  84 SE7       30.12S
MCCOMB         CLEAR     71  69  93 CALM      30.12S

$$

...SURROUNDING MARINE OBSERVATIONS...

STATION/POSITION TIME  SKY/WX   TEMP    WIND        PRES    VSBY
                                AIR SEA DIR/SP/G
                 (UTC)          (F)     (DEG/KT/KT) (MB)    (MI)
WAVELAND         0300            79 79  160/  8/ 10 1019.7R
PASCAGOULA RGN A 0300            79     150/  3/  6 1019.5R
PASCAGOULA PORT  0300               81                N/A
GRAND ISLE       0300            80 82  160/  8/ 14 1019.1R
SOUTHWEST PASS   0400            80     160/ 12/ 13 1019.1S
PILOT STATION E  0300            79 75  170/ 12/ 15 1019.5R
SHELL BEACH      0300            78 81  160/  2/  3 1019.1R
PANAMA CITY      0300            72 83   70/  7/ 10 1021.3S
APALACHICOLA     0300            73 83   40/  7/  9 1021.7F
TYNDALL TOWER C  0400            77      60/ 18/ 19 1021.4R
S APLCHCLA/42036 0350            81 81   40/ 12/ 16 1021.1F
WVE H/P(F/S)=  3/ 6


$$



USA.gov is the U.S. government's official web portal to all federal, state and local government web resources and services.